TimeAKDT,TemperatureF,Dew PointF,Humidity,Sea Level PressureIn,VisibilityMPH,Wind Direction,Wind SpeedMPH,Gust SpeedMPH,PrecipitationIn,Events,Conditions,WindDirDegrees,DateUTC
12:16 AM,62.6,53.6,72,30.05,10.0,ESE,3.5,-,N/A,,Clear,120,2013-07-18 08:16:00
12:36 AM,62.6,53.6,72,30.07,10.0,SSW,3.5,-,N/A,,Clear,210,2013-07-18 08:36:00
12:56 AM,60.8,51.8,72,30.07,10.0,Calm,Calm,-,N/A,,Clear,0,2013-07-18 08:56:00
1:16 AM,60.8,51.8,72,30.08,10.0,SE,5.8,-,N/A,,Clear,130,2013-07-18 09:16:00
1:36 AM,60.8,53.6,77,30.09,10.0,SE,3.5,-,N/A,,Clear,140,2013-07-18 09:36:00
1:56 AM,59.0,51.8,77,30.09,10.0,SSE,4.6,-,N/A,,Clear,160,2013-07-18 09:56:00
2:16 AM,59.0,51.8,77,30.10,10.0,NW,4.6,-,N/A,,Clear,320,2013-07-18 10:16:00
2:36 AM,57.2,50.0,77,30.10,10.0,Calm,Calm,-,N/A,,Clear,0,2013-07-18 10:36:00
2:56 AM,57.2,51.8,82,30.11,10.0,SE,3.5,-,N/A,,Clear,140,2013-07-18 10:56:00
3:16 AM,57.2,51.8,82,30.12,10.0,Calm,Calm,-,N/A,,Clear,0,2013-07-18 11:16:00
3:36 AM,57.2,51.8,82,30.13,10.0,Calm,Calm,-,N/A,,Clear,0,2013-07-18 11:36:00
3:56 AM,57.2,51.8,82,30.13,10.0,Calm,Calm,-,N/A,,Clear,0,2013-07-18 11:56:00
4:16 AM,55.4,50.0,82,30.14,10.0,SSE,6.9,-,N/A,,Clear,150,2013-07-18 12:16:00
4:36 AM,55.4,50.0,82,30.15,10.0,ESE,3.5,-,N/A,,Clear,110,2013-07-18 12:36:00
4:56 AM,55.4,50.0,82,30.15,10.0,Calm,Calm,-,N/A,,Clear,0,2013-07-18 12:56:00
5:16 AM,55.4,51.8,88,30.16,10.0,Calm,Calm,-,N/A,,Clear,0,2013-07-18 13:16:00
5:36 AM,55.4,50.0,82,30.17,10.0,WNW,3.5,-,N/A,,Clear,300,2013-07-18 13:36:00
5:56 AM,55.4,50.0,82,30.18,10.0,Calm,Calm,-,N/A,,Clear,0,2013-07-18 13:56:00
6:16 AM,57.2,51.8,82,30.18,10.0,SSE,3.5,-,N/A,,Scattered Clouds,160,2013-07-18 14:16:00
6:36 AM,57.2,51.8,82,30.19,10.0,Calm,Calm,-,N/A,,Scattered Clouds,0,2013-07-18 14:36:00
6:56 AM,59.0,53.6,82,30.20,10.0,SW,4.6,-,N/A,,Scattered Clouds,220,2013-07-18 14:56:00
7:16 AM,60.8,51.8,72,30.20,10.0,SSW,8.1,-,N/A,,Scattered Clouds,210,2013-07-18 15:16:00
7:36 AM,60.8,51.8,72,30.21,10.0,SSW,9.2,-,N/A,,Scattered Clouds,200,2013-07-18 15:36:00
7:56 AM,60.8,51.8,72,30.21,10.0,South,6.9,-,N/A,,Scattered Clouds,190,2013-07-18 15:56:00
8:16 AM,60.8,51.8,72,30.21,10.0,SSW,5.8,-,N/A,,Scattered Clouds,200,2013-07-18 16:16:00
8:36 AM,60.8,51.8,72,30.22,10.0,SSW,5.8,-,N/A,,Scattered Clouds,210,2013-07-18 16:36:00
8:56 AM,60.8,51.8,72,30.22,10.0,South,4.6,-,N/A,,Scattered Clouds,180,2013-07-18 16:56:00
9:16 AM,60.8,51.8,72,30.22,10.0,SW,9.2,-,N/A,,Overcast,220,2013-07-18 17:16:00
9:36 AM,60.8,51.8,72,30.23,10.0,SSE,3.5,-,N/A,,Overcast,150,2013-07-18 17:36:00
10:16 AM,59.0,51.8,77,30.24,10.0,Calm,Calm,-,N/A,,Overcast,0,2013-07-18 18:16:00
10:36 AM,57.2,51.8,82,30.24,10.0,West,9.2,-,N/A,,Overcast,280,2013-07-18 18:36:00
10:56 AM,57.2,51.8,82,30.24,10.0,West,8.1,-,N/A,,Overcast,270,2013-07-18 18:56:00
11:16 AM,57.2,51.8,82,30.25,10.0,West,9.2,-,N/A,,Overcast,280,2013-07-18 19:16:00
11:36 AM,59.0,51.8,77,30.25,10.0,NW,6.9,-,N/A,,Overcast,320,2013-07-18 19:36:00
11:56 AM,57.2,51.8,82,30.26,10.0,NW,5.8,-,N/A,,Overcast,320,2013-07-18 19:56:00
12:16 PM,57.2,51.8,82,30.26,10.0,NW,5.8,-,N/A,,Overcast,310,2013-07-18 20:16:00
12:36 PM,59.0,51.8,77,30.26,10.0,West,8.1,-,N/A,,Overcast,270,2013-07-18 20:36:00
12:56 PM,60.8,51.8,72,30.26,10.0,West,5.8,-,N/A,,Overcast,260,2013-07-18 20:56:00
1:16 PM,60.8,51.8,72,30.26,10.0,WSW,8.1,-,N/A,,Overcast,250,2013-07-18 21:16:00
1:36 PM,60.8,51.8,72,30.26,10.0,West,8.1,-,N/A,,Overcast,270,2013-07-18 21:36:00
1:56 PM,60.8,51.8,72,30.27,10.0,West,5.8,-,N/A,,Overcast,280,2013-07-18 21:56:00
2:16 PM,60.8,51.8,72,30.27,10.0,West,8.1,-,N/A,,Overcast,280,2013-07-18 22:16:00
2:36 PM,60.8,51.8,72,30.27,10.0,WNW,6.9,-,N/A,,Overcast,290,2013-07-18 22:36:00
2:56 PM,60.8,51.8,72,30.27,10.0,NW,5.8,-,N/A,,Overcast,310,2013-07-18 22:56:00
3:16 PM,59.0,51.8,77,30.27,10.0,NW,4.6,-,N/A,,Overcast,320,2013-07-18 23:16:00
3:36 PM,60.8,51.8,72,30.27,10.0,NNW,3.5,-,N/A,,Overcast,330,2013-07-18 23:36:00
3:56 PM,59.0,51.8,77,30.27,10.0,NW,4.6,-,N/A,,Overcast,320,2013-07-18 23:56:00
4:16 PM,60.8,51.8,72,30.27,10.0,NW,3.5,-,N/A,,Overcast,320,2013-07-19 00:16:00
4:36 PM,60.8,51.8,72,30.26,10.0,Calm,Calm,-,N/A,,Overcast,0,2013-07-19 00:36:00
4:56 PM,60.8,51.8,72,30.26,10.0,NW,3.5,-,N/A,,Overcast,310,2013-07-19 00:56:00
5:16 PM,60.8,51.8,72,30.26,10.0,WNW,4.6,-,N/A,,Overcast,300,2013-07-19 01:16:00
5:36 PM,60.8,51.8,72,30.25,10.0,West,4.6,-,N/A,,Overcast,270,2013-07-19 01:36:00
5:56 PM,60.8,51.8,72,30.25,10.0,West,4.6,-,N/A,,Overcast,270,2013-07-19 01:56:00
6:16 PM,60.8,51.8,72,30.25,10.0,WSW,4.6,-,N/A,,Overcast,250,2013-07-19 02:16:00
6:36 PM,60.8,51.8,72,30.25,10.0,West,5.8,-,N/A,,Overcast,260,2013-07-19 02:36:00
6:56 PM,60.8,51.8,72,30.25,10.0,West,3.5,-,N/A,,Overcast,260,2013-07-19 02:56:00
7:16 PM,60.8,51.8,72,30.25,10.0,SW,3.5,-,N/A,,Overcast,220,2013-07-19 03:16:00
7:36 PM,60.8,51.8,72,30.25,10.0,West,5.8,-,N/A,,Overcast,280,2013-07-19 03:36:00
7:56 PM,59.0,51.8,77,30.25,10.0,West,4.6,-,N/A,,Overcast,260,2013-07-19 03:56:00
8:16 PM,59.0,51.8,77,30.25,10.0,West,3.5,-,N/A,,Overcast,270,2013-07-19 04:16:00
8:36 PM,59.0,51.8,77,30.25,10.0,Calm,Calm,-,N/A,,Overcast,0,2013-07-19 04:36:00
8:56 PM,59.0,51.8,77,30.25,10.0,Calm,Calm,-,N/A,,Overcast,0,2013-07-19 04:56:00
9:16 PM,59.0,51.8,77,30.25,10.0,West,3.5,-,N/A,,Overcast,280,2013-07-19 05:16:00
9:36 PM,57.2,51.8,82,30.25,10.0,West,5.8,-,N/A,,Overcast,260,2013-07-19 05:36:00
9:56 PM,57.2,51.8,82,30.26,10.0,WSW,4.6,-,N/A,,Overcast,250,2013-07-19 05:56:00
10:16 PM,57.2,51.8,82,30.26,10.0,West,4.6,-,N/A,,Overcast,260,2013-07-19 06:16:00
10:36 PM,57.2,50.0,77,30.26,10.0,SW,3.5,-,N/A,,Overcast,230,2013-07-19 06:36:00
10:56 PM,57.2,50.0,77,30.25,10.0,Calm,Calm,-,N/A,,Overcast,0,2013-07-19 06:56:00
11:16 PM,57.2,50.0,77,30.25,10.0,WSW,5.8,-,N/A,,Overcast,250,2013-07-19 07:16:00
11:36 PM,57.2,50.0,77,30.25,10.0,West,4.6,-,N/A,,Overcast,260,2013-07-19 07:36:00
11:56 PM,57.2,50.0,77,30.25,10.0,West,3.5,-,N/A,,Overcast,260,2013-07-19 07:56:00